Back to catalog

NOAA 18

AliveWeatherSSO
NORAD 28654·PAYLOAD·🇺🇸 United States

Launched May 20, 2005 from Vandenberg Space Force Base

Loading…

Next Passes (next 24 hours)

TLE

FreshSource: Space-Track

Epoch: Sep 14, 2026, 13:55 UTC

1 28654U 05018A   26257.58042519  .00000045  00000-0  46931-4 0  9991
2 28654  98.8058 335.9367 0013204 255.6268 104.3439 14.13743109 98942

Track NOAA 18 in real time with AllMySat

Download on the App Store